TimeMST,TemperatureF,Dew PointF,Humidity,Sea Level PressureIn,VisibilityMPH,Wind Direction,Wind SpeedMPH,Gust SpeedMPH,PrecipitationIn,Events,Conditions,WindDirDegrees,DateUTC
12:53 AM,-6.0,-9.9,83,30.38,10.0,SSW,3.5,-,N/A,,Clear,210,2012-12-29 07:53:00
1:53 AM,-9.9,-14.1,82,30.39,10.0,Calm,Calm,-,N/A,,Clear,0,2012-12-29 08:53:00
2:53 AM,-9.0,-13.0,83,30.38,10.0,Calm,Calm,-,N/A,,Clear,0,2012-12-29 09:53:00
3:53 AM,-9.0,-13.0,83,30.39,10.0,SSW,3.5,-,N/A,,Clear,200,2012-12-29 10:53:00
4:53 AM,-6.0,-9.9,83,30.41,10.0,SSE,4.6,-,N/A,,Clear,150,2012-12-29 11:53:00
5:53 AM,-6.0,-11.0,79,30.41,10.0,Calm,Calm,-,N/A,,Clear,0,2012-12-29 12:53:00
6:53 AM,-6.0,-11.0,79,30.42,10.0,South,6.9,-,N/A,,Clear,180,2012-12-29 13:53:00
7:53 AM,-6.0,-9.9,83,30.42,10.0,Calm,Calm,-,N/A,,Clear,0,2012-12-29 14:53:00
8:53 AM,-11.0,-15.0,83,30.45,10.0,WSW,3.5,-,0.00,Snow,Light Snow,240,2012-12-29 15:53:00
9:53 AM,-6.0,-9.0,87,30.42,10.0,Calm,Calm,-,0.00,,Clear,0,2012-12-29 16:53:00
10:53 AM,3.9,1.0,88,30.41,10.0,Calm,Calm,-,N/A,,Clear,0,2012-12-29 17:53:00
11:53 AM,6.1,1.0,80,30.33,10.0,Calm,Calm,-,N/A,,Clear,0,2012-12-29 18:53:00
12:53 PM,9.0,3.0,77,30.28,10.0,Calm,Calm,-,N/A,,Clear,0,2012-12-29 19:53:00
1:53 PM,10.0,3.9,76,30.26,10.0,Calm,Calm,-,N/A,,Clear,0,2012-12-29 20:53:00
2:53 PM,10.9,5.0,77,30.23,10.0,Calm,Calm,-,N/A,,Clear,0,2012-12-29 21:53:00
4:53 PM,10.9,5.0,77,30.21,10.0,Calm,Calm,-,N/A,,Clear,0,2012-12-29 23:53:00
5:53 PM,8.1,3.9,83,30.21,10.0,Calm,Calm,-,N/A,,Clear,0,2012-12-30 00:53:00
6:53 PM,1.0,-2.0,87,30.23,10.0,Calm,Calm,-,N/A,,Clear,0,2012-12-30 01:53:00
7:53 PM,3.0,-0.0,87,30.22,10.0,South,4.6,-,N/A,,Clear,170,2012-12-30 02:53:00
8:53 PM,-5.1,-9.0,83,30.27,10.0,Calm,Calm,-,N/A,,Clear,0,2012-12-30 03:53:00
9:53 PM,-5.1,-8.0,87,30.26,10.0,Calm,Calm,-,N/A,,Clear,0,2012-12-30 04:53:00
10:53 PM,-0.9,-4.0,87,30.22,10.0,SSW,3.5,-,N/A,,Partly Cloudy,210,2012-12-30 05:53:00
11:53 PM,-0.0,-4.0,83,30.21,10.0,Calm,Calm,-,N/A,,Clear,0,2012-12-30 06:53:00